AAL1247 KDFW-KLAX

Flight info

Callsign AAL1247
Flight time N/A
Altitude 36000
Route KATZZ2 BRHMA DCT CNX DCT ONM DCT SJN DCT DRK J231 HIPPI DCT GABBL HLYWD1
Aircraft B38M/M-VGDW/C

Departure

Time 2026-05-07 12:46
Airport Dallas Fort Worth International Airport (KDFW)

Arrival

Time N/A
Airport Los Angeles International Airport (KLAX)
Time Latitude Longitude Altitude Speed Heading
2026-05-07 12:25 32.90680 -97.04554 599 ft 0 kts 46°
2026-05-07 12:29 32.90680 -97.04555 599 ft 2 kts 46°
2026-05-07 12:29 32.90664 -97.04578 599 ft 4 kts 60°
2026-05-07 12:30 32.90655 -97.04607 599 ft 4 kts 83°
2026-05-07 12:30 32.90656 -97.04638 599 ft 4 kts 107°
2026-05-07 12:30 32.90658 -97.04646 599 ft 2 kts 110°
2026-05-07 12:37 32.90657 -97.04641 599 ft 3 kts 112°
2026-05-07 12:37 32.90632 -97.04594 599 ft 2 kts 126°
2026-05-07 12:38 32.90611 -97.04582 599 ft 8 kts 183°
2026-05-07 12:38 32.90578 -97.04675 599 ft 17 kts 269°
2026-05-07 12:38 32.90606 -97.04811 602 ft 16 kts 281°
2026-05-07 12:38 32.90540 -97.04884 603 ft 16 kts 179°
2026-05-07 12:39 32.90420 -97.04884 601 ft 18 kts 182°
2026-05-07 12:39 32.90289 -97.04886 602 ft 19 kts 180°
2026-05-07 12:39 32.90151 -97.04886 601 ft 21 kts 180°
2026-05-07 12:39 32.90002 -97.04886 602 ft 22 kts 179°
2026-05-07 12:40 32.89850 -97.04886 604 ft 22 kts 181°
2026-05-07 12:40 32.89693 -97.04888 602 ft 24 kts 178°
2026-05-07 12:40 32.89521 -97.04889 601 ft 25 kts 179°
2026-05-07 12:40 32.89501 -97.04888 601 ft 25 kts 179°
2026-05-07 12:42 32.89485 -97.04888 601 ft 25 kts 179°
2026-05-07 12:43 32.89301 -97.04889 597 ft 28 kts 180°
2026-05-07 12:43 32.89098 -97.04891 593 ft 30 kts 180°
2026-05-07 12:43 32.88884 -97.04891 591 ft 32 kts 180°
2026-05-07 12:43 32.88661 -97.04891 591 ft 32 kts 182°
2026-05-07 12:44 32.88456 -97.04894 591 ft 30 kts 181°
2026-05-07 12:44 32.88250 -97.04896 592 ft 30 kts 181°
2026-05-07 12:44 32.88084 -97.04902 591 ft 17 kts 201°
2026-05-07 12:44 32.88057 -97.05015 592 ft 15 kts 272°
2026-05-07 12:45 32.88106 -97.05101 593 ft 14 kts 354°
2026-05-07 12:45 32.88209 -97.05090 594 ft 21 kts
2026-05-07 12:45 32.88643 -97.05088 590 ft 103 kts
2026-05-07 12:45 32.89609 -97.05084 611 ft 171 kts
2026-05-07 12:46 32.90938 -97.05071 987 ft 206 kts
2026-05-07 12:46 32.92424 -97.05039 1919 ft 224 kts
2026-05-07 12:46 32.94035 -97.05143 2972 ft 234 kts 353°
2026-05-07 12:46 32.95612 -97.05740 3991 ft 241 kts 341°
2026-05-07 12:47 32.97187 -97.06432 5100 ft 242 kts 341°
2026-05-07 12:47 32.98785 -97.07132 6052 ft 249 kts 335°
2026-05-07 12:47 33.00177 -97.08365 6877 ft 251 kts 304°
2026-05-07 12:47 33.00863 -97.10239 7880 ft 249 kts 279°
2026-05-07 12:48 33.00872 -97.12308 8841 ft 252 kts 268°
2026-05-07 12:48 33.00781 -97.14399 9833 ft 253 kts 268°
2026-05-07 12:48 33.00675 -97.16490 10752 ft 255 kts 266°
2026-05-07 12:48 33.00486 -97.18657 11265 ft 273 kts 265°
2026-05-07 12:49 33.00271 -97.20983 11679 ft 291 kts 265°
2026-05-07 12:49 33.00001 -97.23427 12246 ft 304 kts 257°
2026-05-07 12:49 32.99147 -97.25691 13212 ft 304 kts 246°
2026-05-07 12:49 32.98178 -97.27936 14056 ft 306 kts 247°
2026-05-07 12:50 32.97198 -97.30188 14857 ft 306 kts 246°
2026-05-07 12:50 32.96208 -97.32434 15636 ft 307 kts 246°
2026-05-07 12:50 32.95210 -97.34683 16364 ft 309 kts 246°
2026-05-07 12:50 32.94201 -97.36947 17079 ft 310 kts 246°
2026-05-07 12:51 32.93184 -97.39224 17727 ft 313 kts 246°
2026-05-07 12:51 32.92157 -97.41522 18390 ft 315 kts 246°
2026-05-07 12:51 32.91124 -97.43829 18975 ft 317 kts 246°
2026-05-07 12:51 32.90082 -97.46154 19538 ft 319 kts 246°
2026-05-07 12:52 32.89035 -97.48488 20098 ft 321 kts 246°
2026-05-07 12:52 32.87979 -97.50842 20535 ft 323 kts 245°
2026-05-07 12:52 32.86915 -97.53213 21071 ft 325 kts 246°
2026-05-07 12:52 32.85845 -97.55593 21600 ft 327 kts 246°
2026-05-07 12:53 32.84932 -97.57623 22023 ft 330 kts 246°
2026-05-07 12:53 32.84216 -97.59215 22363 ft 331 kts 245°
2026-05-07 12:53 32.83123 -97.61644 22821 ft 335 kts 245°
2026-05-07 12:53 32.82018 -97.64097 23333 ft 337 kts 245°
2026-05-07 12:54 32.80925 -97.66522 23788 ft 339 kts 245°
2026-05-07 12:54 32.79809 -97.68997 24226 ft 340 kts 245°
2026-05-07 12:54 32.78799 -97.71533 24645 ft 339 kts 254°
2026-05-07 12:54 32.78492 -97.74309 25057 ft 342 kts 270°
2026-05-07 12:55 32.78897 -97.77117 25490 ft 347 kts 278°
2026-05-07 12:55 32.79463 -97.79916 25872 ft 350 kts 278°
2026-05-07 12:55 32.80072 -97.82733 26270 ft 352 kts 278°
2026-05-07 12:55 32.80704 -97.85552 26677 ft 354 kts 278°
2026-05-07 12:56 32.81350 -97.88384 27164 ft 356 kts 278°
2026-05-07 12:56 32.82007 -97.91231 27551 ft 358 kts 278°
2026-05-07 12:56 32.82672 -97.94091 27911 ft 360 kts 278°
2026-05-07 12:56 32.83342 -97.96968 28271 ft 362 kts 278°
2026-05-07 12:57 32.84014 -97.99856 28607 ft 364 kts 278°
2026-05-07 12:57 32.84692 -98.02770 28949 ft 367 kts 278°
2026-05-07 12:57 32.85364 -98.05663 29296 ft 368 kts 278°
2026-05-07 12:57 32.86047 -98.08608 29657 ft 370 kts 277°
2026-05-07 12:58 32.86735 -98.11575 29975 ft 372 kts 277°
2026-05-07 12:58 32.87424 -98.14550 30297 ft 374 kts 277°
2026-05-07 12:58 32.88116 -98.17540 30569 ft 376 kts 277°
2026-05-07 12:58 32.88809 -98.20539 30862 ft 377 kts 277°
2026-05-07 12:59 32.89506 -98.23554 31199 ft 378 kts 277°
2026-05-07 12:59 32.90201 -98.26565 31595 ft 376 kts 277°
2026-05-07 12:59 32.90893 -98.29562 31997 ft 375 kts 277°
2026-05-07 12:59 32.91581 -98.32548 32389 ft 373 kts 277°
2026-05-07 13:00 32.92266 -98.35524 32789 ft 372 kts 277°
2026-05-07 13:00 32.92949 -98.38496 33117 ft 372 kts 277°
2026-05-07 13:00 32.93631 -98.41460 33510 ft 370 kts 277°
2026-05-07 13:00 32.94306 -98.44406 33893 ft 369 kts 277°
2026-05-07 13:01 32.94981 -98.47350 34261 ft 367 kts 277°
2026-05-07 13:01 32.95652 -98.50278 34590 ft 366 kts 277°
2026-05-07 13:01 32.96319 -98.53196 34895 ft 364 kts 276°
2026-05-07 13:01 32.96975 -98.56070 35191 ft 363 kts 276°
2026-05-07 13:02 32.97635 -98.58963 35481 ft 362 kts 276°
2026-05-07 13:02 32.98293 -98.61850 35766 ft 361 kts 276°
2026-05-07 13:02 32.98948 -98.64730 36040 ft 360 kts 276°
2026-05-07 13:02 32.99602 -98.67609 36183 ft 360 kts 276°
2026-05-07 13:03 33.00903 -98.73342 36176 ft 357 kts 276°
2026-05-07 13:03 33.02201 -98.79076 36184 ft 359 kts 276°
2026-05-07 13:04 33.03497 -98.84815 36184 ft 359 kts 276°
2026-05-07 13:04 33.04791 -98.90556 36183 ft 359 kts 276°
2026-05-07 13:05 33.06081 -98.96296 36181 ft 358 kts 276°
2026-05-07 13:05 33.07369 -99.02038 36181 ft 358 kts 276°
2026-05-07 13:06 33.08653 -99.07776 36182 ft 358 kts 276°
2026-05-07 13:06 33.09930 -99.13497 36187 ft 360 kts 276°
2026-05-07 13:07 33.11215 -99.19266 36185 ft 360 kts 276°
2026-05-07 13:07 33.12496 -99.25035 36182 ft 360 kts 276°
2026-05-07 13:08 33.13775 -99.30804 36185 ft 360 kts 276°
2026-05-07 13:08 33.15051 -99.36572 36183 ft 360 kts 276°
2026-05-07 13:09 33.16325 -99.42348 36184 ft 360 kts 276°
2026-05-07 13:09 33.17596 -99.48120 36178 ft 360 kts 276°
2026-05-07 13:10 33.18873 -99.53931 36184 ft 362 kts 276°
2026-05-07 13:10 33.20157 -99.59744 36182 ft 363 kts 276°
2026-05-07 13:11 33.21477 -99.65533 36183 ft 362 kts 276°
2026-05-07 13:11 33.22796 -99.71345 36185 ft 362 kts 276°
2026-05-07 13:12 33.24113 -99.77157 36186 ft 362 kts 276°
2026-05-07 13:12 33.25422 -99.82949 36187 ft 362 kts 276°
2026-05-07 13:13 33.26728 -99.88742 36187 ft 365 kts 276°
2026-05-07 13:13 33.28043 -99.94590 36184 ft 364 kts 276°
2026-05-07 13:14 33.29354 -100.00434 36192 ft 363 kts 276°
2026-05-07 13:14 33.30655 -100.06246 36182 ft 362 kts 276°
2026-05-07 13:15 33.31954 -100.12067 36180 ft 362 kts 276°
2026-05-07 13:15 33.33252 -100.17891 36171 ft 362 kts 276°
2026-05-07 13:16 33.34545 -100.23713 36173 ft 364 kts 276°
2026-05-07 13:16 33.35846 -100.29581 36163 ft 365 kts 276°
2026-05-07 13:17 33.37144 -100.35449 36173 ft 365 kts 276°
2026-05-07 13:17 33.38434 -100.41294 36170 ft 364 kts 276°
2026-05-07 13:18 33.39724 -100.47159 36163 ft 364 kts 276°
2026-05-07 13:18 33.41011 -100.53017 36166 ft 364 kts 276°
2026-05-07 13:19 33.42289 -100.58854 36160 ft 365 kts 276°
2026-05-07 13:19 33.43576 -100.64746 36163 ft 367 kts 276°
2026-05-07 13:20 33.44864 -100.70656 36172 ft 367 kts 276°
2026-05-07 13:20 33.46148 -100.76563 36157 ft 366 kts 276°
2026-05-07 13:21 33.47430 -100.82474 36159 ft 366 kts 276°
2026-05-07 13:21 33.48706 -100.88371 36158 ft 364 kts 276°
2026-05-07 13:22 33.49972 -100.94234 36159 ft 363 kts 276°
2026-05-07 13:22 33.51227 -101.00056 36153 ft 363 kts 276°
2026-05-07 13:23 33.52454 -101.05926 36152 ft 363 kts 275°
2026-05-07 13:23 33.53642 -101.11807 36150 ft 363 kts 275°
2026-05-07 13:24 33.54831 -101.17692 36147 ft 363 kts 275°
2026-05-07 13:24 33.56017 -101.23573 36152 ft 363 kts 275°
2026-05-07 13:25 33.57199 -101.29452 36152 ft 363 kts 275°
2026-05-07 13:25 33.58382 -101.35349 36145 ft 365 kts 275°
2026-05-07 13:26 33.59568 -101.41274 36151 ft 365 kts 275°
2026-05-07 13:26 33.60750 -101.47196 36160 ft 365 kts 275°
2026-05-07 13:27 33.61928 -101.53118 36176 ft 365 kts 275°
2026-05-07 13:27 33.63104 -101.59040 36188 ft 365 kts 275°
2026-05-07 13:28 33.64269 -101.64925 36205 ft 365 kts 275°
2026-05-07 13:28 33.65440 -101.70858 36221 ft 366 kts 275°
2026-05-07 13:29 33.66611 -101.76804 36223 ft 365 kts 276°
2026-05-07 13:29 33.67775 -101.82732 36224 ft 365 kts 276°
2026-05-07 13:30 33.68939 -101.88677 36220 ft 365 kts 275°
2026-05-07 13:30 33.70099 -101.94613 36210 ft 365 kts 275°
2026-05-07 13:31 33.71256 -102.00555 36200 ft 365 kts 275°
2026-05-07 13:31 33.72410 -102.06499 36177 ft 366 kts 275°
2026-05-07 13:32 33.73568 -102.12476 36165 ft 368 kts 275°
2026-05-07 13:32 33.74530 -102.17452 36157 ft 367 kts 275°
2026-05-07 13:33 33.75681 -102.23426 36136 ft 367 kts 275°
2026-05-07 13:33 33.76830 -102.29406 36140 ft 367 kts 275°
2026-05-07 13:34 33.78736 -102.39359 36130 ft 367 kts 275°
2026-05-07 13:35 33.79695 -102.44385 36138 ft 369 kts 275°